Tracking 31027 objects as of 19-Jul-2025
HD Live streaming from Space Station
objects crossing your sky now

SL-12 DEB

Track SL-12 DEB now!
10-day predictions


NORAD ID: 41560
Int'l Code: 2008-067J
Perigee: 722.1 km
Apogee: 18,838.7 km
Inclination: 65.4 °
Period: 340.5 minutes
Semi major axis: 16151 km
RCS: Unknown
Launch date: December 25, 2008
Source: Commonwealth of Independent States (former USSR) (CIS)
Launch site: TYURATAM MISSILE AND SPACE COMPLEX (TTMTR)

Note: This is SATELLITE DEBRIS
Your satellite tracking list
STARLINK-30236
Track 1 satellite(s)




NASA's NSSDC Master Catalog

Two Line Element Set (TLE):
1 41560U 08067J   25199.30745378  .00000361  00000-0  35284-2 0  9994
2 41560  65.3828 296.1923 5608359 255.2127  39.1968  4.22948376143562
Source of the keplerian elements: AFSPC